This is the latest recevied weather packets stored in our database for station/object KD4IZ-13. If no packets are shown the sender has not sent any weather packets the latest 10 day(s).
| Time | Temp. | Humidity | Pressure | Rain* | Wind** | Luminosity | Snow |
|---|---|---|---|---|---|---|---|
| 1777655744 | 15.56° C | 50% | 1014.5 hPa | 0 mm | - | 704 W/m² | - |
| 1777655441 | 15° C | 53% | 1014.6 hPa | 0 mm | - | 696 W/m² | - |
| 1777655138 | 15.56° C | 49% | 1014.5 hPa | 0 mm | - | 697 W/m² | - |
| 1777654835 | 15° C | 52% | 1014.5 hPa | 0 mm | - | 662 W/m² | - |
| 1777654532 | 14.44° C | 55% | 1014.7 hPa | 0 mm | - | 718 W/m² | - |
| 1777654230 | 14.44° C | 51% | 1014.6 hPa | 0 mm | - | 692 W/m² | - |
| 1777653927 | 15° C | 51% | 1014.6 hPa | 0 mm | - | 712 W/m² | - |
| 1777653624 | 15.56° C | 52% | 1014.7 hPa | 0 mm | - | 719 W/m² | - |
| 1777653320 | 15° C | 51% | 1014.8 hPa | 0 mm | - | 715 W/m² | - |
| 1777653017 | 14.44° C | 52% | 1014.8 hPa | 0 mm | - | 716 W/m² | - |
| 1777652713 | 14.44° C | 53% | 1014.8 hPa | 0 mm | - | 711 W/m² | - |
| 1777652410 | 13.89° C | 54% | 1015.1 hPa | 0 mm | - | 707 W/m² | - |
| 1777652108 | 14.44° C | 52% | 1015.1 hPa | 0 mm | - | 711 W/m² | - |
| 1777651804 | 14.44° C | 51% | 1015.4 hPa | 0 mm | - | 716 W/m² | - |
| 1777651501 | 13.89° C | 56% | 1015.3 hPa | 0 mm | - | 719 W/m² | - |
| 1777651198 | 13.89° C | 57% | 1015.4 hPa | 0 mm | - | 734 W/m² | - |
| 1777650895 | 13.89° C | 53% | 1015.5 hPa | 0 mm | - | 716 W/m² | - |
| 1777650591 | 13.89° C | 52% | 1015.6 hPa | 0 mm | - | 714 W/m² | - |
| 1777650289 | 12.78° C | 53% | 1015.6 hPa | 0 mm | - | 680 W/m² | - |
| 1777649986 | 13.89° C | 55% | 1015.7 hPa | 0 mm | - | 711 W/m² | - |
| 1777649683 | 12.78° C | 52% | 1015.6 hPa | 0 mm | - | 753 W/m² | - |
| 1777649379 | 13.89° C | 52% | 1015.7 hPa | 0 mm | - | 772 W/m² | - |
| 1777649077 | 13.33° C | 53% | 1015.6 hPa | 0 mm | - | 777 W/m² | - |
| 1777648774 | 13.33° C | 53% | 1015.9 hPa | 0 mm | - | 774 W/m² | - |
| 1777648471 | 12.78° C | 55% | 1015.8 hPa | 0 mm | - | 770 W/m² | - |
* Rain latest hour (hover to see other rain measurements)
** Current wind speed in m/s (hover to see current wind gust speed)